INTELSAT 602 1 20315C 89087A 12208.00000000 .00000126 00000-0 00000-0 0 20808 2 20315 9.4398 52.0028 0004322 23.5424 46.3972 1.00273032 14 INTELSAT 602 1 20315C 89087A 12212.00000000 .00000035 00000-0 00000-0 0 21207 2 20315 9.4472 51.9923 0012159 36.9876 27.1321 0.99322671 11 INTELSAT 602 [PM] 1 20315C 89087A 12213.51190972 -.00000038 00000-0 00000-0 0 21341 2 20315 9.4507 51.9820 0001943 145.0646 96.7905 0.99028701 19 LEASAT 5 1 20410C 90002B 12121.00000000 .00000032 00000-0 00000-0 0 12107 2 20410 10.0066 28.0115 0003174 138.2597 124.0659 1.00270278 14 LEASAT 5 1 20410C 90002B 12124.00000000 .00000032 00000-0 00000-0 0 12403 2 20410 10.0134 27.9832 0003576 129.5774 135.7380 1.00269769 13 INTELSAT 603 1 20523C 90021A 13164.00000000 -.00000160 00000-0 00000-0 0 16401 2 20523 9.5734 49.7465 0004081 358.3676 139.5821 1.00092468 18 INTELSAT 603 1 20523C 90021A 13168.00000000 -.00000151 00000-0 00000-0 0 16809 2 20523 9.5819 49.6804 0004263 0.6307 138.7921 1.00090925 16 INTELSAT 603 [PM] 1 20523C 90021A 13168.79340278 -.00000149 00000-0 00000-0 0 16862 2 20523 9.5848 49.6533 0006217 27.1170 38.2124 1.00103249 13 INTELSAT 701 [PM] 1 22871C 93066A 13053.60959491 -.00000035 00000-0 00000-0 0 5343 2 22871 1.0443 77.2023 0006344 271.6522 181.3737 1.00459577 16 INTELSAT 701 1 22871C 93066A 13164.00000000 .00000109 00000-0 00000-0 0 16403 2 22871 1.2833 76.2327 0006354 350.9461 72.0457 1.00491698 16 INTELSAT 701 1 22871C 93066A 13168.00000000 .00000090 00000-0 00000-0 0 16800 2 22871 1.2897 76.0734 0006745 354.1269 76.1405 1.00492048 10 INTELSAT 702 1 23124C 94034A 13164.00000000 .00000246 00000-0 00000-0 0 16403 2 23124 1.6323 75.0529 0002760 14.8018 204.6092 1.00271075 11 INTELSAT 702 [PM] 1 23124C 94034A 13164.54865741 .00000246 00000-0 00000-0 0 16447 2 23124 1.6327 75.0439 0002906 15.3711 42.1066 1.00270921 18 INTELSAT 702 1 23124C 94034A 13168.00000000 .00000246 00000-0 00000-0 0 16801 2 23124 1.6387 74.9168 0003206 18.5678 204.9235 1.00272936 16 INTELSAT 706 [PM] 1 23571C 95023A 13162.69791667 -.00000048 00000-0 00000-0 0 16251 2 23571 1.5634 74.8820 0003031 11.8098 221.7361 1.00272977 10 INTELSAT 706 1 23571C 95023A 13164.00000000 -.00000048 00000-0 00000-0 0 16409 2 23571 1.5648 74.8714 0003181 14.6016 328.9946 1.00272359 17 INTELSAT 706 1 23571C 95023A 13168.00000000 -.00000048 00000-0 00000-0 0 16807 2 23571 1.5712 74.7370 0003664 17.9485 329.7342 1.00271712 19 PAKSAT 1 [PM] 1 23779C 96006A 12020.50000000 .00000169 00000-0 00000-0 0 2044 2 23779 0.1968 90.0191 0004318 359.5852 223.2478 0.99603997 18 PAKSAT 1 1 23779C 96006A 12093.00000000 .00000209 00000-0 00000-0 0 9300 2 23779 0.3536 81.6764 0009860 356.0699 309.5018 0.99594763 19 PAKSAT 1 1 23779C 96006A 12096.00000000 .00000183 00000-0 00000-0 0 9607 2 23779 0.3594 81.0742 0010536 357.1934 304.6312 0.99596000 18 INTELSAT 707 1 23816C 96015A 13010.00000000 -.00000195 00000-0 00000-0 0 1006 2 23816 0.1873 75.4516 0002922 222.7000 118.5241 1.00270204 16 INTELSAT 707 [PM] 1 23816C 96015A 13013.00000000 -.00000175 00000-0 00000-0 0 1300 2 23816 0.1531 223.0942 0065131 94.8102 91.7751 0.98538962 15 INTELSAT 707 1 23816C 96015A 13014.00000000 -.00000187 00000-0 00000-0 0 1405 2 23816 0.1922 75.7883 0003694 216.9111 119.9132 0.99536656 13 INTELSAT 24 1 23865C 96030B 12219.00000000 -.00000118 00000-0 00000-0 0 21903 2 23865 3.6105 68.0951 0005367 108.5681 57.1759 0.98874779 14 INTELSAT 24 1 23865C 96030B 12222.00000000 -.00000009 00000-0 00000-0 0 22200 2 23865 3.6182 68.0363 0014305 93.4138 56.9269 0.98124888 19 INTELSAT 24 [PM] 1 23865C 96030B 12234.54031250 -.00000196 00000-0 00000-0 0 23447 2 23865 3.6313 68.5969 0009772 52.2831 184.7881 0.97518717 14 INTELSAT 709 1 23915C 96035A 13028.00000000 .00000217 00000-0 00000-0 0 2800 2 23915 0.6717 79.2858 0003332 235.7371 219.9182 1.00274860 12 INTELSAT 709 1 23915C 96035A 13031.00000000 .00000225 00000-0 00000-0 0 3107 2 23915 0.6819 78.5604 0011515 312.4163 144.4813 0.99549914 15 INTELSAT 709 [PM] 1 23915C 96035A 13032.44903935 .00000234 00000-0 00000-0 0 3239 2 23915 0.7046 77.0891 0011467 155.9067 101.4262 0.99256439 17 INTELSAT 26 [PM] 1 24732C 97007A 13059.00000000 .00000203 00000-0 00000-0 0 5901 2 24732 4.6465 63.7919 0005503 294.2056 210.2516 1.00268201 19 INTELSAT 26 1 24732C 97007A 13164.00000000 .00000203 00000-0 00000-0 0 16405 2 24732 4.8651 62.7497 0002252 25.1569 223.8604 1.00272207 15 INTELSAT 26 1 24732C 97007A 13168.00000000 .00000203 00000-0 00000-0 0 16803 2 24732 4.8724 62.6687 0002653 25.8174 227.2285 1.00269421 17 INTELSAT 801 1 24742C 97009A 13164.00000000 -.00000123 00000-0 00000-0 0 16400 2 24742 4.0935 65.3578 0003719 358.2094 168.4061 1.00274317 19 INTELSAT 801 1 24742C 97009A 13168.00000000 -.00000123 00000-0 00000-0 0 16808 2 24742 4.1004 65.2747 0004011 3.4916 167.1668 1.00273045 18 INTELSAT 801 [PM] 1 24742C 97009A 13169.16378472 -.00000123 00000-0 00000-0 0 16919 2 24742 4.1041 65.2497 0003642 13.2259 217.5677 1.00272323 17 GALAXY 25 1 24812C 97026A 13164.00000000 -.00000109 00000-0 00000-0 0 16401 2 24812 0.0237 76.7446 0002808 9.7877 81.8400 1.00271504 13 GALAXY 25 1 24812C 97026A 13168.00000000 -.00000073 00000-0 00000-0 0 16809 2 24812 0.0300 77.6123 0003232 0.8193 93.8895 1.00271764 10 GALAXY 25 [PM] 1 24812C 97026A 13168.59555556 -.00000073 00000-0 00000-0 0 16848 2 24812 0.0316 76.7187 0003269 3.6307 306.9607 1.00271968 10 INTELSAT 5 [PM] 1 24916C 97046A 13127.29166667 .00000061 00000-0 00000-0 0 12727 2 24916 0.5044 79.3837 0000595 288.6155 31.3731 1.00225082 17 INTELSAT 5 1 24916C 97046A 13164.00000000 .00000093 00000-0 00000-0 0 16409 2 24916 0.5823 79.4664 0002002 5.7146 241.7531 1.00270372 11 INTELSAT 5 1 24916C 97046A 13168.00000000 .00000093 00000-0 00000-0 0 16807 2 24916 0.5886 79.1813 0002463 13.7827 237.8984 1.00270919 14 INTELSAT 805 1 25371C 98037A 13164.00000000 -.00000195 00000-0 00000-0 0 16400 2 25371 0.0231 69.4940 0002807 9.2663 127.2209 1.00273284 12 INTELSAT 805 1 25371C 98037A 13168.00000000 -.00000194 00000-0 00000-0 0 16807 2 25371 0.0065 27.6141 0003315 57.2086 125.1029 1.00270528 18 INTELSAT 805 [PM] 1 25371C 98037A 13169.87500000 -.00000198 00000-0 00000-0 0 16970 2 25371 0.0134 38.2972 0003402 46.1613 82.3029 1.00273301 11 INTELSAT 7 1 25473C 98052A 13164.00000000 .00000064 00000-0 00000-0 0 16404 2 25473 0.1567 81.9024 0003381 353.6691 254.5558 1.00271667 19 INTELSAT 7 [PM] 1 25473C 98052A 13167.93559028 .00000064 00000-0 00000-0 0 16778 2 25473 0.1622 81.0294 0003760 359.6111 230.1801 1.00271463 10 INTELSAT 7 1 25473C 98052A 13168.00000000 .00000064 00000-0 00000-0 0 16802 2 25473 0.1624 80.9914 0003761 359.9549 253.1254 1.00271351 11 INTELSAT 8 1 25522C 98065A 13164.00000000 .00000070 00000-0 00000-0 0 16400 2 25522 0.0370 166.1155 0002872 267.8792 356.4935 1.00270789 13 INTELSAT 8 [PM] 1 25522C 98065A 13164.55402778 .00000048 00000-0 00000-0 0 16447 2 25522 0.0000 351.5124 0002980 82.9969 195.9740 1.00271239 12 INTELSAT 8 1 25522C 98065A 13168.00000000 .00000061 00000-0 00000-0 0 16808 2 25522 0.0060 45.5611 0003300 35.1309 353.7334 1.00270920 13 GALAXY 26 1 25626C 99005A 13164.00000000 .00000205 00000-0 00000-0 0 16400 2 25626 0.0332 288.4277 0003194 154.6767 228.3674 1.00272020 19 GALAXY 26 1 25626C 99005A 13168.00000000 .00000205 00000-0 00000-0 0 16808 2 25626 0.0420 284.9174 0003600 161.8362 228.6646 1.00272389 17 GALAXY 26 [PM] 1 25626C 99005A 13168.54859954 .00000205 00000-0 00000-0 0 16841 2 25626 0.0419 286.4175 0003664 160.1617 66.8736 1.00271679 11 INSAT-2E 1 25666C 99016A 12187.00000000 .00000080 00000-0 00000-0 0 18706 2 25666 0.9583 77.8548 0006033 9.9340 262.5139 1.00274364 14 INSAT-2E 1 25666C 99016A 12194.00000000 .00000079 00000-0 00000-0 0 19400 2 25666 0.9722 77.5584 0005311 14.4207 265.3160 1.00276519 16 GALAXY 27 1 25922C 99052A 13164.00000000 .00000138 00000-0 00000-0 0 16406 2 25922 0.2342 79.8426 0002212 6.4286 235.3055 1.00271172 17 GALAXY 27 1 25922C 99052A 13168.00000000 .00000138 00000-0 00000-0 0 16804 2 25922 0.2402 79.2628 0002649 11.3091 234.9480 1.00272141 19 GALAXY 27 [PM] 1 25922C 99052A 13170.01821759 .00000138 00000-0 00000-0 0 17003 2 25922 0.2464 78.8715 0002757 11.5783 243.6259 1.00270423 11 DIRECTV 1R 1 25937C 99056A 13164.00000000 .00000170 00000-0 00000-0 0 16402 2 25937 0.8337 77.1694 0002773 356.3437 243.7658 1.00269563 11 DIRECTV 1R 1 25937C 99056A 13168.00000000 .00000170 00000-0 00000-0 0 16800 2 25937 0.8402 76.7215 0003100 1.3295 243.1570 1.00270843 12 GALAXY 11 [PM] 1 26038C 99071A 11228.45833333 -.00000222 00000-0 00000-0 0 22836 2 26038 0.0200 254.7632 0008084 141.9333 37.5926 1.00252005 14 GALAXY 11 1 26038C 99071A 13163.94538194 -.00000195 00000-0 00000-0 0 16378 2 26038 0.0470 236.4255 0000287 81.9181 227.8309 1.00270318 18 GALAXY 11 1 26038C 99071A 13168.00000000 -.00000200 00000-0 00000-0 0 16805 2 26038 0.0458 240.5086 0000350 169.8948 159.4290 1.00269871 11 INTELSAT 9 [PM] 1 26451C 00043A 12328.66666667 -.00000196 00000-0 00000-0 0 32858 2 26451 0.1264 81.4817 0002264 143.7856 20.4991 1.00367497 13 INTELSAT 9 1 26451C 00043A 13164.00000000 -.00000179 00000-0 00000-0 0 16402 2 26451 0.5662 80.0099 0002295 8.3684 129.9911 1.00270187 11 INTELSAT 9 1 26451C 00043A 13168.00000000 -.00000179 00000-0 00000-0 0 16800 2 26451 0.5728 79.7280 0002510 3.7102 138.8644 1.00273921 16 INTELSAT 12 1 26590C 00068A 13164.00000000 .00000229 00000-0 00000-0 0 16408 2 26590 0.0114 16.6352 0003527 79.9208 209.9179 1.00272625 18 INTELSAT 12 1 26590C 00068A 13168.00000000 .00000227 00000-0 00000-0 0 16804 2 26590 0.0181 28.7411 0003790 60.6415 221.0306 1.00272363 17 INTELSAT 12 [PM] 1 26590C 00068A 13168.56357639 .00000227 00000-0 00000-0 0 16842 2 26590 0.0197 30.0820 0003825 59.5599 64.2151 1.00272012 19 INTELSAT 1R 1 26608C 00072A 13163.94538194 -.00000190 00000-0 00000-0 0 16379 2 26608 0.0444 163.4503 0000128 71.9127 316.3919 1.00269824 11 INTELSAT 1R 1 26608C 00072A 13168.00000000 -.00000219 00000-0 00000-0 0 16801 2 26608 0.0195 125.9303 0000434 297.9994 151.4922 1.00269040 19 INTELSAT 10 [PM] 1 26766C 01019A 12361.79166667 .00000217 00000-0 00000-0 0 36168 2 26766 0.0425 60.4071 0000593 19.3315 348.4582 1.00268718 15 INTELSAT 10 1 26766C 01019A 13164.00000000 .00000217 00000-0 00000-0 0 16407 2 26766 0.0152 56.4542 0002104 33.0062 219.5199 1.00273684 12 INTELSAT 10 1 26766C 01019A 13168.00000000 .00000217 00000-0 00000-0 0 16805 2 26766 0.0231 62.8388 0002599 21.6479 228.4253 1.00270152 19 INTELSAT 901 1 26824C 01024A 13164.00000000 -.00000050 00000-0 00000-0 0 16404 2 26824 0.0098 12.8039 0003098 68.3075 162.3782 1.00271824 18 INTELSAT 901 1 26824C 01024A 13168.00000000 -.00000051 00000-0 00000-0 0 16803 2 26824 0.0161 26.2735 0003556 59.0517 162.1012 1.00271063 17 INTELSAT 901 [PM] 1 26824C 01024A 13169.04228009 -.00000051 00000-0 00000-0 0 16900 2 26824 0.0202 311.7574 0003684 136.6627 175.2493 1.00271294 16 INTELSAT 902 1 26900C 01039A 13164.00000000 .00000123 00000-0 00000-0 0 16405 2 26900 0.0126 358.3325 0003009 86.4799 238.6680 1.00271497 17 INTELSAT 902 1 26900C 01039A 13168.00000000 .00000124 00000-0 00000-0 0 16804 2 26900 0.0171 11.4957 0003413 75.6365 240.2907 1.00270929 13 INTELSAT 902 [PM] 1 26900C 01039A 13171.31388889 .00000123 00000-0 00000-0 0 17121 2 26900 0.0209 327.4469 0003687 125.6201 350.6127 1.00270930 13 INTELSAT 904 1 27380C 02007A 13164.00000000 .00000139 00000-0 00000-0 0 16401 2 27380 0.0090 348.6827 0002864 88.6379 244.1560 1.00271238 17 INTELSAT 904 1 27380C 02007A 13168.00000000 .00000139 00000-0 00000-0 0 16809 2 27380 0.0123 4.7179 0003288 77.4555 243.2470 1.00272142 12 INTELSAT 904 [PM] 1 27380C 02007A 13169.09993056 .00000139 00000-0 00000-0 0 16902 2 27380 0.0148 11.9972 0003391 70.7131 279.7708 1.00270949 12 INTELSAT 903 1 27403C 02016A 13164.00000000 -.00000148 00000-0 00000-0 0 16408 2 27403 0.0108 30.5761 0002828 59.4052 136.9909 1.00272767 14 INTELSAT 903 1 27403C 02016A 13168.00000000 -.00000148 00000-0 00000-0 0 16806 2 27403 0.0163 307.0481 0003281 146.4994 137.3784 1.00271612 16 INTELSAT 903 [PM] 1 27403C 02016A 13169.81666667 -.00000148 00000-0 00000-0 0 16960 2 27403 0.0121 327.0557 0003399 128.4292 71.2319 1.00272117 18 INTELSAT 905 1 27438C 02027A 13164.00000000 -.00000094 00000-0 00000-0 0 16408 2 27438 0.0121 297.8075 0002565 141.3337 157.8350 1.00268621 14 INTELSAT 905 [PM] 1 27438C 02027A 13165.75421296 -.00000115 00000-0 00000-0 0 16566 2 27438 0.0097 302.6928 0002672 129.6463 77.8854 1.00273088 19 INTELSAT 905 1 27438C 02027A 13168.00000000 -.00000093 00000-0 00000-0 0 16805 2 27438 0.0055 321.0206 0002944 116.8094 163.1017 1.00272951 15 GALAXY 3C 1 27445C 02030A 13163.94538194 -.00000066 00000-0 00000-0 0 16377 2 27445 0.0178 115.6254 0000415 152.0546 239.0446 1.00268434 14 GALAXY 3C 1 27445C 02030A 13168.00000000 -.00000062 00000-0 00000-0 0 16803 2 27445 0.0218 223.4336 0000222 110.9930 195.9516 1.00268945 19 INTELSAT 906 1 27513C 02041A 13164.00000000 .00000105 00000-0 00000-0 0 16400 2 27513 0.0308 62.1948 0002874 29.4054 234.0266 1.00271586 10 INTELSAT 906 [PM] 1 27513C 02041A 13167.51409722 .00000104 00000-0 00000-0 0 16749 2 27513 0.0228 290.9796 0003034 144.1557 79.0174 1.00273764 10 INTELSAT 906 1 27513C 02041A 13168.00000000 .00000105 00000-0 00000-0 0 16808 2 27513 0.0176 309.2290 0003047 135.9471 244.3806 1.00272544 16 INTELSAT 907 1 27683C 03007A 13164.00000000 -.00000112 00000-0 00000-0 0 16400 2 27683 0.0109 359.4854 0002855 78.9862 155.5145 1.00271561 16 INTELSAT 907 1 27683C 03007A 13168.00000000 -.00000112 00000-0 00000-0 0 16808 2 27683 0.0156 13.6231 0003309 67.5877 156.7166 1.00272169 12 INTELSAT 907 [PM] 1 27683C 03007A 13171.06295139 -.00000112 00000-0 00000-0 0 17101 2 27683 0.0203 323.6082 0003507 124.2141 175.7857 1.00271259 15 GALAXY 12 1 27715C 03013B 13164.00000000 .00000149 00000-0 00000-0 0 16402 2 27715 0.0473 260.9227 0002526 214.9777 16.5665 1.00271818 16 GALAXY 12 [PM] 1 27715C 03013B 13167.55912037 .00000149 00000-0 00000-0 0 16744 2 27715 0.0423 264.8192 0002984 208.3235 224.1195 1.00271219 19 GALAXY 12 1 27715C 03013B 13168.00000000 .00000149 00000-0 00000-0 0 16800 2 27715 0.0413 266.1794 0002987 206.4599 23.7733 1.00271205 12 GALAXY 23 1 27854C 03034A 13164.00000000 .00000103 00000-0 00000-0 0 16409 2 27854 0.0202 31.6622 0002752 47.8617 60.9356 1.00271197 19 GALAXY 23 1 27854C 03034A 13168.00000000 .00000103 00000-0 00000-0 0 16807 2 27854 0.0182 330.1530 0003241 113.8766 60.3796 1.00271936 17 GALAXY 23 [PM] 1 27854C 03034A 13171.54930556 .00000103 00000-0 00000-0 0 17146 2 27854 0.0173 358.3584 0003514 90.3469 256.9579 1.00270714 15 GALAXY 13 1 27954C 03044A 13163.94538194 .00000115 00000-0 00000-0 0 16372 2 27954 0.0000 347.7070 0003361 90.2500 36.7906 1.00270973 17 GALAXY 13 1 27954C 03044A 13168.00000000 .00000232 00000-0 00000-0 0 16802 2 27954 0.0076 311.8762 0003900 123.8931 62.6524 1.00271166 19 INTELSAT 10-02 [PM] 1 28358C 04022A 13163.64599537 .00000053 00000-0 00000-0 0 16352 2 28358 0.0323 168.5194 0000891 191.6603 132.5137 1.00273295 16 INTELSAT 10-02 1 28358C 04022A 13163.94538194 .00000076 00000-0 00000-0 0 16374 2 28358 0.0185 99.6239 0000559 284.1842 216.9622 1.00270078 12 INTELSAT 10-02 1 28358C 04022A 13168.00000000 -.00003656 00000-0 00000-0 0 16802 2 28358 0.0000 297.8794 0001008 101.2410 225.3273 1.00271030 11 GALAXY 28 1 28702C 05022A 13163.94538194 -.00000095 00000-0 00000-0 0 16370 2 28702 0.0206 70.8958 0001716 94.5373 347.3283 1.00271344 15 GALAXY 28 [PM] 1 28702C 05022A 13164.27436343 -.00000095 00000-0 00000-0 0 16426 2 28702 0.0095 47.4557 0001540 109.9943 114.0677 1.00272788 14 GALAXY 28 1 28702C 05022A 13168.00000000 -.00000098 00000-0 00000-0 0 16803 2 28702 0.0109 45.0320 0001679 104.0113 27.3818 1.00270078 13 GALAXY 14 1 28790C 05030A 13164.00000000 .00000127 00000-0 00000-0 0 16403 2 28790 0.0208 24.3122 0001673 39.7034 72.4467 1.00271283 10 GALAXY 14 [PM] 1 28790C 05030A 13167.85381944 .00000127 00000-0 00000-0 0 16767 2 28790 0.0234 321.3413 0002083 111.7152 14.5814 1.00271110 12 GALAXY 14 1 28790C 05030A 13168.00000000 .00000127 00000-0 00000-0 0 16801 2 28790 0.0234 322.7558 0002116 109.6082 68.0428 1.00271226 15 GALAXY 15 1 28884C 05041A 13164.00000000 .00000169 00000-0 00000-0 0 16405 2 28884 0.0159 348.1332 0000939 71.1794 69.1588 1.00271383 14 GALAXY 15 1 28884C 05041A 13168.00000000 .00000169 00000-0 00000-0 0 16803 2 28884 0.0187 0.5582 0001374 68.3493 63.5000 1.00270786 12 GALAXY 15 [PM] 1 28884C 05041A 13169.79146991 .00000169 00000-0 00000-0 0 16967 2 28884 0.0362 262.4159 0001351 177.0855 339.5969 1.00273867 14 GALAXY 16 1 29236C 06023A 13164.00000000 -.00003474 00000-0 00000-0 0 16401 2 29236 0.0171 273.1747 0003266 166.9547 82.3446 1.00271067 11 GALAXY 16 [PM] 1 29236C 06023A 13166.95209491 -.00000035 00000-0 00000-0 0 16671 2 29236 0.0109 283.8947 0003559 156.5887 67.6485 1.00272158 10 GALAXY 16 1 29236C 06023A 13168.00000000 -.00000031 00000-0 00000-0 0 16805 2 29236 0.0056 301.2934 0003693 141.0020 84.1177 1.00272106 14 GALAXY 17 1 31307C 07016B 13164.00000000 -.00003526 00000-0 00000-0 0 16404 2 31307 0.0274 88.6887 0002765 345.9172 95.8706 1.00272605 14 GALAXY 17 1 31307C 07016B 13168.00000000 -.00000086 00000-0 00000-0 0 16800 2 31307 0.0322 86.1352 0003213 353.6945 94.6000 1.00271553 16 GALAXY 17 [PM] 1 31307C 07016B 13168.75523148 -.00000084 00000-0 00000-0 0 16869 2 31307 0.0172 280.9564 0003260 161.2610 4.8396 1.00271085 13 INTELSAT 11 [PM] 1 32253C 07044B 13163.44795139 -.00003262 00000-0 00000-0 0 16336 2 32253 0.0179 270.8365 0002479 168.0079 300.3513 1.00273467 14 INTELSAT 11 1 32253C 07044B 13164.00000000 -.00003586 00000-0 00000-0 0 16402 2 32253 0.0175 269.9792 0002533 167.9524 140.5491 1.00273716 13 INTELSAT 11 1 32253C 07044B 13168.00000000 -.00003239 00000-0 00000-0 0 16805 2 32253 0.0048 299.8264 0002998 143.0379 139.5730 1.00271802 14 HORIZONS-2 1 32388C 07063B 13164.00000000 -.00000093 00000-0 00000-0 0 16402 2 32388 0.0175 16.2996 0002643 62.6160 267.4104 1.00273067 19 HORIZONS-2 1 32388C 07063B 13168.00000000 -.00000093 00000-0 00000-0 0 16800 2 32388 0.0237 26.0761 0003048 56.6783 267.5314 1.00272106 18 HORIZONS-2 [PM] 1 32388C 07063B 13168.21289352 -.00000093 00000-0 00000-0 0 16813 2 32388 0.0226 284.9189 0003111 153.2330 348.9830 1.00269523 14 GALAXY 18 1 32951C 08024A 13164.00000000 .00000112 00000-0 00000-0 0 16407 2 32951 0.0341 132.3522 0002723 305.8903 60.2382 1.00271370 13 GALAXY 18 1 32951C 08024A 13168.00000000 -.00003938 00000-0 00000-0 0 16805 2 32951 0.0389 187.8965 0003167 257.6423 56.8848 1.00271607 16 GALAXY 18 [PM] 1 32951C 08024A 13169.59722222 -.00002838 00000-0 00000-0 0 16940 2 32951 0.0374 200.1896 0003337 248.1211 270.6850 1.00270814 19 INTELSAT 25 [PM] 1 33153C 08034A 13163.47222222 -.00000134 00000-0 00000-0 0 16332 2 33153 0.0085 355.9216 0002524 68.1401 335.3893 1.00272507 13 INTELSAT 25 1 33153C 08034A 13164.00000000 -.00000144 00000-0 00000-0 0 16409 2 33153 0.0083 358.5168 0002601 65.4356 166.0204 1.00272767 14 INTELSAT 25 1 33153C 08034A 13168.00000000 -.00000134 00000-0 00000-0 0 16806 2 33153 0.0129 14.0637 0002990 57.3300 162.5254 1.00271297 13 GALAXY 19 1 33376C 08045A 13164.00000000 -.00000091 00000-0 00000-0 0 16409 2 33376 0.0243 227.1546 0002818 212.4883 84.8268 1.00272257 10 GALAXY 19 1 33376C 08045A 13168.00000000 -.00000128 00000-0 00000-0 0 16808 2 33376 0.0292 179.5756 0003280 264.2644 84.5781 1.00271358 19 GALAXY 19 [PM] 1 33376C 08045A 13169.97291667 -.00000106 00000-0 00000-0 0 16970 2 33376 0.0001 43.2264 0003448 44.3316 73.0508 1.00271496 10 INTELSAT 14 1 36097C 09064A 13164.00000000 -.00000182 00000-0 00000-0 0 16405 2 36097 0.0100 332.8077 0002036 109.4705 134.1957 1.00273146 10 INTELSAT 14 1 36097C 09064A 13168.00000000 -.00000183 00000-0 00000-0 0 16804 2 36097 0.0117 350.9766 0002492 95.7929 133.6519 1.00271123 16 INTELSAT 14 [PM] 1 36097C 09064A 13169.85694444 -.00000183 00000-0 00000-0 0 16966 2 36097 0.0148 4.5613 0002622 82.3665 83.8155 1.00272658 13 INTELSAT 15 1 36106C 09067A 13164.00000000 -.00000095 00000-0 00000-0 0 16402 2 36106 0.0254 64.2845 0002161 19.1079 263.2387 1.00271636 13 INTELSAT 15 1 36106C 09067A 13168.00000000 -.00000091 00000-0 00000-0 0 16806 2 36106 0.0323 66.7219 0002585 18.4505 265.4016 1.00271543 18 INTELSAT 15 [PM] 1 36106C 09067A 13169.27387732 -.00000095 00000-0 00000-0 0 16923 2 36106 0.0066 3.3623 0002643 82.2084 4.8509 1.00271570 16 INTELSAT 16 1 36397C 10006A 13164.00000000 -.00000195 00000-0 00000-0 0 16400 2 36397 0.0259 303.3591 0002137 126.6081 133.4172 1.00271577 19 INTELSAT 16 [PM] 1 36397C 10006A 13166.27854167 -.00000195 00000-0 00000-0 0 16626 2 36397 0.0267 302.9187 0002464 131.9377 231.0543 1.00272719 10 INTELSAT 16 1 36397C 10006A 13168.00000000 -.00000195 00000-0 00000-0 0 16808 2 36397 0.0240 310.1497 0002666 127.1779 130.0092 1.00272053 11 INTELSAT 17 1 37238C 10065B 13164.00000000 .00000088 00000-0 00000-0 0 16400 2 37238 0.0293 78.0327 0002740 0.6974 248.7458 1.00271753 10 INTELSAT 17 [PM] 1 37238C 10065B 13166.15138889 .00000088 00000-0 00000-0 0 16618 2 37238 0.0314 79.6940 0002967 359.8874 304.5190 1.00271078 15 INTELSAT 17 1 37238C 10065B 13168.00000000 .00000088 00000-0 00000-0 0 16808 2 37238 0.0349 77.0093 0003194 4.9379 249.4740 1.00271600 14 INTELSAT NEW DAWN [PM] 1 37392C 11016A 13163.68067130 -.00003766 00000-0 00000-0 0 16359 2 37392 0.0407 169.0451 0000309 249.9644 119.9595 1.00271549 12 INTELSAT NEW DAWN 1 37392C 11016A 13164.00000000 -.00003899 00000-0 00000-0 0 16402 2 37392 0.0000 11.0900 0000353 57.4496 225.7031 1.00271550 15 INTELSAT NEW DAWN 1 37392C 11016A 13168.00000000 .00000219 00000-0 00000-0 0 16802 2 37392 0.0051 31.6379 0000780 57.5462 209.0127 1.00273358 16 INTELSAT 18 1 37834C 11056A 13164.00000000 .00000143 00000-0 00000-0 0 16405 2 37834 0.0080 351.9439 0003059 91.6967 357.8347 1.00271871 19 INTELSAT 18 1 37834C 11056A 13168.00000000 .00000143 00000-0 00000-0 0 16803 2 37834 0.0117 7.7054 0003474 77.3345 0.3792 1.00271573 14 INTELSAT 18 [PM] 1 37834C 11056A 13171.58844907 .00000143 00000-0 00000-0 0 17140 2 37834 0.0213 32.5778 0003683 56.7569 211.4672 1.00270959 10 INTELSAT 22 1 38098C 12011A 13164.00000000 .00000031 00000-0 00000-0 0 16406 2 38098 0.0111 345.6129 0002474 116.1569 231.8133 1.00273315 13 INTELSAT 22 1 38098C 12011A 13168.00000000 .00000031 00000-0 00000-0 0 16804 2 38098 0.0138 0.9374 0002908 97.4564 239.1264 1.00271090 17 INTELSAT 22 [PM] 1 38098C 12011A 13168.79182870 .00000031 00000-0 00000-0 0 16862 2 38098 0.0145 341.1902 0002953 118.8887 163.2769 1.00270347 19 INTELSAT 19 1 38356C 12030A 13164.00000000 .00000034 00000-0 00000-0 0 16407 2 38356 0.0245 27.8375 0002010 64.4778 335.1713 1.00272335 16 INTELSAT 19 1 38356C 12030A 13168.00000000 .00000034 00000-0 00000-0 0 16805 2 38356 0.0202 359.4428 0002393 95.9587 336.0356 1.00270458 10 INTELSAT 19 [PM] 1 38356C 12030A 13168.59033565 .00000034 00000-0 00000-0 0 16845 2 38356 0.0212 1.6540 0002490 94.6583 188.2248 1.00271082 13 INTELSAT 20 [PM] 1 38740C 12043A 13163.40208333 .00000065 00000-0 00000-0 0 16336 2 38740 0.0161 38.6564 0002169 299.8587 135.6479 1.00270443 17 INTELSAT 20 1 38740C 12043A 13164.00000000 .00000065 00000-0 00000-0 0 16402 2 38740 0.0166 40.7274 0002085 300.2143 349.0588 1.00270452 18 INTELSAT 20 1 38740C 12043A 13168.00000000 .00000069 00000-0 00000-0 0 16804 2 38740 0.0123 19.6249 0001857 333.5529 340.7527 1.00270803 12 INTELSAT 21 1 38749C 12045A 13164.00000000 -.00000195 00000-0 00000-0 0 16408 2 38749 0.0136 340.7793 0001606 102.1790 120.5317 1.00271720 19 INTELSAT 21 1 38749C 12045A 13168.00000000 -.00000195 00000-0 00000-0 0 16806 2 38749 0.0153 355.1904 0002067 87.8819 124.3657 1.00271503 13 INTELSAT 21 [PM] 1 38749C 12045A 13169.15225694 -.00000195 00000-0 00000-0 0 16913 2 38749 0.0223 320.3052 0002130 129.7228 173.3536 1.00270473 15 INTELSAT 23 1 38867C 12057A 13164.00000000 -.00000194 00000-0 00000-0 0 16401 2 38867 0.0248 322.9710 0001406 105.3965 140.1233 1.00273001 11 INTELSAT 23 1 38867C 12057A 13168.00000000 -.00000195 00000-0 00000-0 0 16800 2 38867 0.0241 331.4491 0001900 103.0041 137.9710 1.00270305 12 INTELSAT 23 [PM] 1 38867C 12057A 13168.17460648 -.00000195 00000-0 00000-0 0 16817 2 38867 0.0244 331.5731 0002115 106.2160 197.6644 1.00273868 15